Location: Bois de la Silve
(44.4667°N, 6.7833°E)
Time: 08:40:53
(UTC+00:00)

ADEOS II - Pass Details

Date: 14 July 2020
Orbit: 799 x 801 km, 98.5° (Epoch: 14 August)

Event Time Altitude Azimuth Distance (km) Brightness Sun altitude
Rises 01:18:03 0° 21° (NNE) 3,320 6.9 -20.1°
Reaches altitude 10° 01:20:34 10° 29° (NNE) 2,385 5.8 -19.9°
Maximum altitude 01:25:27 38° 97° (E) 1,215 3.2 -19.6°
Enters shadow 01:28:38 19° 154° (SSE) 1,803 3.6 -19.3°
